Location: Hepcat Sky Observatory
(29.9800°N, 95.6500°W)
Time: 08:27:38
(UTC-06:00)

Cosmos 2366 rocket - Visible Passes

Search period start: 19 December 2014 00:00
Search period end: 29 December 2014 00:00
Orbit: 954 x 998 km, 82.9° (Epoch: 17 December)

Date Brightness Start Highest point End Pass type
(mag) Time Alt. Az. Time Alt. Az. Time Alt. Az.
19 Dec 5.6 04:06:45 25° NE 04:08:25 28° ENE 04:13:36 10° SE visible
19 Dec 4.6 05:51:32 25° NW 05:53:41 31° W 05:58:58 10° SSW visible
20 Dec 4.4 04:33:39 54° ENE 04:34:15 56° E 04:40:16 10° SSE visible
20 Dec 5.3 06:18:25 15° WNW 06:19:01 15° W 06:22:19 10° WSW visible
20 Dec 5.1 17:51:26 10° SSW 17:57:25 47° W 18:03:21 10° N visible
21 Dec 6.8 03:15:42 10° E 03:15:42 10° E 03:15:52 10° E visible
21 Dec 3.9 05:00:28 69° SW 05:00:28 69° SW 05:06:03 10° S visible
21 Dec 6.3 18:18:24 10° SW 18:23:17 24° WNW 18:28:09 10° NNW visible
22 Dec 6.2 03:42:27 19° ESE 03:42:27 19° ESE 03:44:55 10° SE visible
22 Dec 4.8 05:27:13 30° WSW 05:27:13 30° WSW 05:31:00 10° SSW visible
22 Dec 6.8 18:47:34 10° W 18:49:20 11° WNW 18:51:07 10° NW visible
23 Dec 5.6 04:09:09 26° SE 04:09:09 26° SE 04:11:51 10° SSE visible
23 Dec 5.7 05:53:55 13° WSW 05:53:55 13° WSW 05:54:48 10° SW visible
24 Dec 5.6 04:35:47 22° S 04:35:47 22° S 04:37:49 10° S visible
24 Dec 6.1 17:49:44 10° SW 17:54:56 28° WNW 18:00:08 10° NNW visible
25 Dec 6.0 05:02:21 13° SSW 05:02:21 13° SSW 05:02:58 10° SSW visible
25 Dec 6.6 18:18:00 10° WSW 18:20:57 14° WNW 18:23:53 10° NW visible
